Location: *
(50.2903°S, 172.5375°W)
Time: 06:58:29
(UTC+00:00)

ARIANE 5 R/B - Pass Details

Date: 17 November 2019
Orbit: 749 x 794 km, 98.6° (Epoch: 08 December)

Event Time Altitude Azimuth Distance (km) Brightness Sun altitude
Exits shadow 12:23:27 12° 43° (NE) 2,252 4.6 -19.1°
Maximum altitude 12:28:08 46° 113° (ESE) 1,071 3.5 -18.9°
Drops below altitude 10° 12:33:11 10° 185° (S) 2,396 6.0 -18.6°
Sets 12:35:35 0° 190° (S) 3,328 6.8 -18.5°
